Regional Weather Roundup
Issued by NWS

Home | Current Version | Previous Version | Graphics & Text | Print | Product List | Glossary On
Versions: 1 2 3 4 5 6 7 8 9 10 11 12 13 14 15 16 17 18 19 20 21 22 23 24 25 26 27 28 29 30 31 32 33 34 35 36 37 38 39 40 41 42 43 44 45 46 47 48 49 50
301
ASUS43 KOAX 212110
RWRNE

WEATHER ROUNDUP FOR NEBRASKA
NATIONAL WEATHER SERVICE OMAHA NE
400 PM CDT MON AUG 21 2017

NOTES: SATELLITE DATA IS BEING USED TO AUGMENT CLOUD COVER ABOVE
       12000 FEET.
       "FAIR" INDICATES FEW OR NO CLOUDS BELOW 12,000 FEET WITH NO
       SIGNIFICANT WEATHER AND/OR OBSTRUCTIONS TO VISIBILITY.


NEZ001>004-019>022-054>056-212200-
NEBRASKA PANHANDLE

CITY           SKY/WX    TMP DP  RH WIND       PRES   REMARKS
SCOTTSBLUFF    SUNNY     84  50  30 NE12G21   30.12F
ALLIANCE       SUNNY     80  52  37 N18       30.10S
CHADRON        SUNNY     82  48  30 N16       30.10F
GORDON         FAIR      80  58  48 NW15      30.09S
KIMBALL        SUNNY     81  54  39 NE20G25   30.16S
SIDNEY         SUNNY     83  61  47 N24G31    30.12S
$$

NEZ057>060-069>072-079>082-212200-
SOUTHWEST NEBRASKA

CITY           SKY/WX    TMP DP  RH WIND       PRES   REMARKS
NORTH PLATTE   MOSUNNY   85  72  65 N9        29.97F HX  91
IMPERIAL       SUNNY     87  66  49 N13G20    29.99S
LEXINGTON      MOSUNNY   87  65  48 S10       29.95F
MCCOOK         CLOUDY    85  64  49 SW8       29.95S
OGALLALA       MOSUNNY   85  65  51 N13G20    30.02S
$$

NEZ005>010-023>029-035>040-094-212200-
NORTH CENTRAL NEBRASKA

CITY           SKY/WX    TMP DP  RH WIND       PRES   REMARKS
VALENTINE      CLOUDY    78  63  59 N14       30.01S
AINSWORTH      CLOUDY    75  68  78 CALM      30.00S
BROKEN BOW     SUNNY     84  70  62 N6        29.96F
O`NEILL        CLOUDY    71  66  83 SE9       29.98S
ORD            SUNNY     83  70  64 NE10      29.93F
THEDFORD       CLOUDY    74  67  78 NE10      30.04R
$$

NEZ041-046>049-061>064-073>077-083>087-212200-
SOUTH CENTRAL NEBRASKA

CITY           SKY/WX    TMP DP  RH WIND       PRES   REMARKS
GRAND ISLAND   MOSUNNY   85  68  56 S14       29.94F
AURORA         MOSUNNY   85  67  55 SW13      29.94F
HASTINGS       MOSUNNY   86  67  52 S9        29.96S
HEBRON         CLOUDY    87  70  57 SW10G16   29.96S HX  91
HOLDREGE       MOSUNNY   84  64  50 SW10      29.95F
KEARNEY        MOSUNNY   84  68  58 S14       29.95F
YORK           MOSUNNY   84  72  65 S15       29.95S
$$

NEZ011>018-030>034-042>045-212200-
NORTHEAST NEBRASKA

CITY           SKY/WX    TMP DP  RH WIND       PRES   REMARKS
NORFOLK        LGT RAIN  70  65  84 E14       29.92F
ALBION         CLOUDY    74  65  73 E17G24    29.96F
BLAIR          CLOUDY    80  72  77 S14G20    29.93F
COLUMBUS       PTSUNNY   84  70  62 SW8G17    29.95R
FREMONT        MOSUNNY   82  72  70 S15       29.93F
TEKAMAH        CLOUDY    80  70  71 SW8       29.96R
WAYNE          LGT RAIN  67  64  91 N3        29.95F
$$

NEZ050>053-065>068-078-088>093-212200-
SOUTHEAST NEBRASKA

CITY           SKY/WX    TMP DP  RH WIND       PRES   REMARKS
LINCOLN        CLOUDY    84  71  65 S13       29.94S
OMAHA EPPLEY   CLOUDY    81  71  71 S13       29.93F
BEATRICE       CLOUDY    86  71  61 S12       29.95F HX  92
FALLS CITY     PTSUNNY   86  72  62 S12       29.94F HX  92
NEBRASKA CITY  MOSUNNY   85  73  68 S13G20    29.94F HX  92
PLATTSMOUTH    MOSUNNY   82  72  71 S17       29.93F
$$

NEZ044-045-051>053-067-212200-
OMAHA AREA

CITY           SKY/WX    TMP DP  RH WIND       PRES   REMARKS
OMAHA EPPLEY   CLOUDY    81  71  71 S13       29.93F
BLAIR          CLOUDY    80  72  77 S14G20    29.93F
FREMONT        MOSUNNY   82  72  70 S15       29.93F
MILLARD        CLOUDY    83  74  73 S13       29.93F HX  90
OFFUTT AFB     MOSUNNY   84  73  68 S10       29.92F HX  90
PLATTSMOUTH    MOSUNNY   82  72  71 S17       29.93F
WAHOO          FAIR      83  74  74 S10G17    29.93F HX  90
$$




USA.gov is the U.S. government's official web portal to all federal, state and local government web resources and services.